This is the latest recevied weather packets stored in our database for station/object N8VDS-10. If no packets are shown the sender has not sent any weather packets the latest 10 day(s).
| Time | Temp. | Humidity | Pressure | Rain* | Wind** | Luminosity | Snow |
|---|---|---|---|---|---|---|---|
| 1778089490 | 9.44° C | 46% | 1016.6 hPa | 0 mm | - | 212 W/m² | - |
| 1778089186 | 8.89° C | 47% | 1016.7 hPa | 0 mm | - | 179 W/m² | - |
| 1778088884 | 9.44° C | 48% | 1016.7 hPa | 0 mm | - | 247 W/m² | - |
| 1778088580 | 9.44° C | 48% | 1016.7 hPa | 0 mm | - | 276 W/m² | - |
| 1778088278 | 8.89° C | 49% | 1016.8 hPa | 0 mm | - | 192 W/m² | - |
| 1778087974 | 8.89° C | 50% | 1016.6 hPa | 0 mm | - | 161 W/m² | - |
| 1778087672 | 9.44° C | 49% | 1016.6 hPa | 0 mm | - | 173 W/m² | - |
| 1778087370 | 9.44° C | 47% | 1016.5 hPa | 0 mm | - | 276 W/m² | - |
| 1778087066 | 9.44° C | 51% | 1016.5 hPa | 0 mm | - | 359 W/m² | - |
| 1778086764 | 9.44° C | 51% | 1016.5 hPa | 0 mm | - | 282 W/m² | - |
| 1778086463 | 10° C | 49% | 1016.6 hPa | 0 mm | - | 269 W/m² | - |
| 1778086159 | 10° C | 46% | 1016.6 hPa | 0 mm | - | 591 W/m² | - |
| 1778085855 | 8.89° C | 47% | 1016.5 hPa | 0 mm | - | 210 W/m² | - |
| 1778085554 | 9.44° C | 49% | 1016.8 hPa | 0 mm | - | 206 W/m² | - |
| 1778085247 | 8.89° C | 52% | 1016.9 hPa | 0 mm | - | 256 W/m² | - |
| 1778084943 | 8.89° C | 54% | 1016.8 hPa | 0 mm | - | 623 W/m² | - |
| 1778084641 | 8.33° C | 54% | 1016.7 hPa | 0 mm | - | 774 W/m² | - |
| 1778084338 | 8.33° C | 54% | 1017 hPa | 0 mm | - | 624 W/m² | - |
| 1778084036 | 8.33° C | 55% | 1016.9 hPa | 0 mm | - | 196 W/m² | - |
| 1778083733 | 8.33° C | 54% | 1017.1 hPa | 0 mm | - | 183 W/m² | - |
| 1778083430 | 8.89° C | 53% | 1016.8 hPa | 0 mm | - | 132 W/m² | - |
| 1778083129 | 8.89° C | 55% | 1016.9 hPa | 0 mm | - | 579 W/m² | - |
| 1778082825 | 8.89° C | 55% | 1016.8 hPa | 0 mm | - | 688 W/m² | - |
| 1778081702 | 8.89° C | 57% | 1016.8 hPa | 0 mm | - | 792 W/m² | - |
| 1778081400 | 8.89° C | 56% | 1016.7 hPa | 0 mm | - | 594 W/m² | - |
* Rain latest hour (hover to see other rain measurements)
** Current wind speed in m/s (hover to see current wind gust speed)